Location: Famechon
(49.7599°N, 2.0615°E)
Time: 14:40:59
(UTC+00:00)

BREEZE-M DEB (TANK) - Pass Details

Date: 03 February 2023
Orbit: 427 x 13836 km, 45.9° (Epoch: 25 March)

Event Time Altitude Azimuth Distance (km) Brightness Sun altitude
Rises 17:10:05 0° 248° (WSW) 2,389 9.0 -3.9°
Reaches altitude 10° 17:11:49 10° 241° (WSW) 1,545 6.5 -4.1°
Maximum altitude 17:14:37 45° 165° (SSE) 745 3.1 -4.6°
Drops below altitude 10° 17:19:40 10° 92° (E) 2,785 5.3 -5.3°
Enters shadow 17:21:53 - 90° (E) 3,836 6.0 -5.7°
